Regional Weather Roundup
Issued by NWS

Home | Current Version | Previous Version | Graphics & Text | Print | Product List | Glossary On
Versions: 1 2 3 4 5 6 7 8 9 10 11 12 13 14 15 16 17 18 19 20 21 22 23 24 25 26 27 28 29 30 31 32 33 34 35 36 37 38 39 40 41 42 43 44 45 46 47 48 49 50
000
ASUS45 KBOU 311407
RWRCO

WEATHER ROUNDUP FOR COLORADO
NATIONAL WEATHER SERVICE DENVER/BOULDER CO
800 AM MDT THU JUL 31 2014

NOTE: "FAIR" INDICATES FEW OR NO CLOUDS BELOW 12000 FEET WITH NO
SIGNIFICANT WEATHER AND/OR OBSTRUCTIONS TO VISIBILITY.

COZ001>005-013-030-031-311500-
...NORTHWEST COLORADO...

CITY           SKY/WX    TMP DP  RH WIND       PRES   REMARKS
CRAIG          CLOUDY    52  52 100 CALM      30.32R
HAYDEN         MOSUNNY   55  48  76 E7        30.33R
MEEKER         PTSUNNY   59  53  80 CALM      30.32R
MOUNT WERNER   NOT AVBL
STEAMBOAT SPGS CLOUDY    53  50  89 CALM      30.34S
WALDEN         SUNNY     50  45  81 CALM      30.42R
$$

COZ006>008-011-311500-
...WEST CENTRAL VALLEYS...

CITY           SKY/WX    TMP DP  RH WIND       PRES   REMARKS
GRAND JUNCTION SUNNY     65  57  75 SW3       30.20R
MONTROSE       SUNNY     64  53  67 S6        30.27S
EAGLE          PTSUNNY   55  55 100 VRB5      30.36R
RIFLE          SUNNY     59  54  83 CALM      30.27R
DELTA          SUNNY     67  55  64 E6        30.23S
NUCLA          SUNNY     63  52  67 E3        30.29S
$$

COZ017>023-064>068-311500-
...SOUTHWEST COLORADO...

CITY           SKY/WX    TMP DP  RH WIND       PRES   REMARKS
DURANGO        CLOUDY    62  52  69 E7        30.33R
CORTEZ         SUNNY     63  51  65 CALM      30.24S
PAGOSA SPRINGS CLOUDY    60  48  65 CALM      30.40R
TELLURIDE      SUNNY     55  46  71 CALM      30.45S
WOLF CREEK PAS NOT AVBL
$$

COZ009-010-012-014-032>034-037-058>063-311500-
...CENTRAL COLORADO...

CITY           SKY/WX    TMP DP  RH WIND       PRES   REMARKS
ASPEN          MOSUNNY   53  48  83 CALM      30.38R
BUENA VISTA    CLOUDY    53  51  91 CALM      30.42S
COPPER MTN     CLOUDY    46  41  81 W9        30.63R
BERTHOUD PASS  FOG       36  36 100 SE5       30.67R VSB<1/4
COTTONWOOD PAS FOG       52  48  87 CALM      30.51S VSB<1/4
GUNNISON       MOSUNNY   54  45  71 CALM      30.40S
KREMMLING      CLOUDY    55  50  82 CALM      30.39S
LEADVILLE      CLOUDY    47  44  90 CALM      30.50R
MONARCH PASS   FOG       45  43  93 SW10      30.73S VSB<1/4
SALIDA         CLOUDY    56  53  90 CALM      30.46F
SUNLIGHT       CLOUDY    52  50  93 CALM      30.57R
WILKERSON PASS CLOUDY    43  41  93 W3        30.61S FOG
$$

COZ069>075-311500-
...SAN LUIS VALLEY/SANGRE DE CRISTO MOUNTAINS...

CITY           SKY/WX    TMP DP  RH WIND       PRES   REMARKS
ALAMOSA        CLOUDY    57  53  86 E8        30.37S
LA VETA PASS   FOG       48  46  93 CALM      30.52S VSB 1/4
SAGUACHE       CLOUDY    55  52  88 CALM      30.41S
$$

COZ035-036-038>040-311500-
...NORTHERN COLORADO FRONT RANGE...

CITY           SKY/WX    TMP DP  RH WIND       PRES   REMARKS
DENVER INTL AP CLOUDY    59  56  89 S6        30.31R
DMNS CITY PARK   N/A     59  58  95 W6        30.31S
AURORA         CLOUDY    58  57  99 CALM      30.33R
FRONT RANGE AP NOT AVBL
ERIE MUNI ARPT CLOUDY    60  58  95 CALM      30.30S
BOULDER MUN AP DRIZZLE   59  55  88 W5        30.31S
CENTENNIAL     LGT RAIN  57  55  93 N5        30.33R FOG
BROOMFIELD     CLOUDY    57  57 100 NW6       30.33R
FORT COLLINS   CLOUDY    61  57  88 CALM      30.30S
LONGMONT       CLOUDY    62  58  86 CALM      30.32S
$$

COZ041-046-047-076>085-087-088-311500-
...PIKES PEAK/PALMER DIVIDE AND SOUTHERN FOOTHILLS...

CITY           SKY/WX    TMP DP  RH WIND       PRES   REMARKS
COLO. SPRINGS  LGT RAIN  56  54  93 SE6       30.36R FOG
A. F. ACADEMY  CLOUDY    55  55  99 S6        30.36R
ELLICOTT       CLOUDY    56  54  93 S5        30.34S
FALCON         CLOUDY    54  53  96 CALM      30.39R FOG
FORT CARSON    CLOUDY    57  57 100 SE7       30.34R
LIMON          CLOUDY    57  56  96 SE3       30.32S
MONUMENT HILL  CLOUDY    54  52  94 CALM      30.37R
TRINIDAD       CLOUDY    57  56  96 CALM      30.31S
$$

COZ042>045-048>051-090-091-311500-
...NORTHEAST COLORADO...

CITY           SKY/WX    TMP DP  RH WIND       PRES   REMARKS
GREELEY ARPT   NOT AVBL
AKRON          PTSUNNY   62  57  83 SW8       30.27R
BURLINGTON     MOSUNNY   63  56  78 W5        30.27R
WRAY             N/A     65  61  86 SW6       30.23S
STERLING       PTSUNNY   66  63  88 SW5       30.24R
HOLYOKE        MOSUNNY   68  59  73 W7        30.21S
FORT MORGAN    PTSUNNY   61  58  90 SW5       30.28S
$$

COZ086-089-092>099-311500-
...SOUTHEAST COLORADO...

CITY           SKY/WX    TMP DP  RH WIND       PRES   REMARKS
PUEBLO         PTSUNNY   61  59  93 E5        30.28S
LA JUNTA       CLOUDY    63  59  87 CALM      30.27R
LAMAR          CLOUDY    62  60  93 CALM      30.24R
SPRINGFIELD      N/A     61  56  83 CALM      30.28R
$$



USA.gov is the U.S. government's official web portal to all federal, state and local government web resources and services.